Total_Precipitation_Accumulation
0.33 0.27 0.23 0.17 0.14 0.11 0.11 0.16 0.33 0.59 0.84 1.14 1.24 1.21 1.24 1.34 1.28 1.07 0.83 0.65 0.57 0.52 0.50 0.46 0.41 0.35 0.29 0.25 0.21 0.18 0.16 0.17 0.17 0.16 0.16 0.15 0.14 0.13 0.12 0.11 0.09 0.07 0.05 0.04
0.27 0.24 0.25 0.23 0.26 0.26 0.24 0.30 0.49 0.70 1.04 1.40 1.49 1.51 1.44 1.38 1.33 1.21 1.02 0.85 0.72 0.64 0.57 0.53 0.50 0.46 0.43 0.40 0.36 0.30 0.27 0.25 0.24 0.21 0.19 0.16 0.14 0.12 0.09 0.06 0.04 0.02 0.02 0.01
0.30 0.23 0.30 0.41 0.40 0.32 0.33 0.43 0.59 0.70 0.89 1.14 1.23 1.29 1.36 1.40 1.38 1.31 1.15 1.00 0.91 0.88 0.82 0.76 0.70 0.64 0.59 0.52 0.42 0.35 0.30 0.26 0.22 0.18 0.14 0.11 0.08 0.06 0.05 0.04 0.04 0.03 0.02 0.02
0.21 0.28 0.47 0.43 0.34 0.30 0.34 0.43 0.47 0.51 0.61 0.80 0.93 1.04 1.16 1.28 1.35 1.31 1.19 1.13 1.10 1.01 0.94 0.88 0.77 0.63 0.48 0.37 0.30 0.25 0.21 0.17 0.13 0.10 0.07 0.05 0.04 0.04 0.04 0.05 0.05 0.05 0.04 0.03
0.18 0.32 0.45 0.43 0.28 0.24 0.35 0.45 0.41 0.40 0.43 0.50 0.57 0.65 0.84 0.93 0.99 1.08 1.08 1.02 0.99 0.95 0.90 0.80 0.64 0.46 0.33 0.25 0.20 0.16 0.14 0.11 0.07 0.05 0.04 0.04 0.04 0.04 0.05 0.06 0.06 0.05 0.04 0.05
0.18 0.33 0.46 0.48 0.20 0.12 0.25 0.54 0.51 0.45 0.43 0.47 0.57 0.63 0.60 0.58 0.59 0.64 0.70 0.75 0.77 0.73 0.64 0.54 0.41 0.29 0.23 0.19 0.16 0.13 0.10 0.07 0.05 0.04 0.04 0.04 0.05 0.05 0.05 0.06 0.07 0.05 0.05 0.07
0.23 0.37 0.44 0.22 0.14 0.21 0.47 0.61 0.54 0.45 0.47 0.57 0.62 0.54 0.38 0.34 0.39 0.44 0.50 0.55 0.55 0.50 0.46 0.37 0.27 0.21 0.20 0.17 0.14 0.10 0.08 0.07 0.06 0.04 0.04 0.04 0.06 0.07 0.06 0.06 0.07 0.07 0.08 0.10
0.32 0.42 0.45 0.18 0.19 0.35 0.41 0.35 0.32 0.32 0.34 0.34 0.30 0.25 0.22 0.21 0.25 0.31 0.38 0.42 0.40 0.37 0.31 0.23 0.19 0.18 0.17 0.15 0.10 0.08 0.09 0.09 0.07 0.05 0.03 0.03 0.07 0.09 0.07 0.07 0.09 0.09 0.10 0.12
0.29 0.38 0.31 0.14 0.15 0.18 0.20 0.22 0.20 0.23 0.24 0.18 0.17 0.19 0.17 0.15 0.19 0.24 0.25 0.25 0.22 0.19 0.17 0.16 0.15 0.15 0.15 0.10 0.07 0.07 0.09 0.10 0.08 0.05 0.04 0.03 0.05 0.07 0.07 0.08 0.07 0.06 0.07 0.10
0.12 0.20 0.18 0.15 0.14 0.13 0.14 0.16 0.17 0.18 0.20 0.17 0.11 0.08 0.09 0.14 0.19 0.21 0.18 0.15 0.13 0.13 0.14 0.15 0.13 0.13 0.13 0.09 0.09 0.11 0.13 0.11 0.08 0.07 0.06 0.04 0.03 0.03 0.03 0.04 0.04 0.05 0.08 0.09
0.10 0.16 0.18 0.21 0.18 0.15 0.15 0.15 0.15 0.18 0.20 0.16 0.10 0.08 0.10 0.13 0.15 0.15 0.14 0.13 0.14 0.17 0.15 0.12 0.10 0.10 0.08 0.07 0.09 0.13 0.13 0.08 0.07 0.07 0.06 0.06 0.05 0.03 0.02 0.02 0.01 0.02 0.04 0.05
0.15 0.18 0.21 0.27 0.19 0.14 0.20 0.25 0.27 0.26 0.20 0.14 0.12 0.11 0.11 0.11 0.12 0.12 0.13 0.14 0.16 0.14 0.11 0.08 0.06 0.05 0.03 0.03 0.04 0.07 0.08 0.06 0.05 0.05 0.05 0.04 0.06 0.07 0.02 0.01 0.01 0.01 0.02 0.03
0.13 0.12 0.17 0.27 0.24 0.24 0.27 0.27 0.25 0.19 0.13 0.11 0.11 0.13 0.14 0.14 0.13 0.11 0.11 0.11 0.11 0.08 0.07 0.05 0.03 0.02 0.01 0.01 0.01 0.02 0.04 0.03 0.02 0.02 0.03 0.03 0.05 0.11 0.14 0.08 0.02 0.01 0.01 0.02
0.29 0.26 0.33 0.36 0.30 0.24 0.21 0.17 0.15 0.13 0.14 0.13 0.14 0.15 0.14 0.11 0.09 0.08 0.07 0.06 0.04 0.04 0.03 0.02 0.01 0.01 0.00 0.00 0.00 0.01 0.02 0.01 0.01 0.01 0.01 0.02 0.04 0.06 0.11 0.17 0.15 0.11 0.05 0.02
0.35 0.32 0.34 0.32 0.23 0.18 0.15 0.13 0.14 0.16 0.17 0.16 0.13 0.11 0.09 0.08 0.07 0.04 0.02 0.01 0.02 0.02 0.01 0.01 0.00 0.00 0.00 0.00 0.01 0.01 0.01 0.02 0.02 0.01 0.01 0.01 0.02 0.03 0.05 0.09 0.13 0.14 0.12 0.07
0.32 0.26 0.23 0.19 0.14 0.13 0.13 0.12 0.12 0.12 0.12 0.10 0.08 0.07 0.05 0.04 0.02 0.01 0.01 0.01 0.01 0.01 0.00 0.00 0.00 0.00 0.00 0.00 0.01 0.01 0.01 0.01 0.01 0.01 0.01 0.01 0.01 0.02 0.04 0.07 0.09 0.10 0.09 0.07
0.27 0.22 0.17 0.13 0.11 0.09 0.09 0.09 0.08 0.06 0.05 0.05 0.04 0.02 0.02 0.01 0.01 0.01 0.01 0.01 0.00 0.00 0.00 0.00 0.00 0.00 0.00 0.00 0.00 0.01 0.01 0.01 0.01 0.01 0.01 0.01 0.01 0.02 0.03 0.06 0.08 0.09 0.07 0.05
0.21 0.16 0.12 0.08 0.06 0.05 0.05 0.04 0.04 0.03 0.02 0.02 0.01 0.01 0.01 0.01 0.01 0.01 0.00 0.00 0.00 0.00 0.00 0.00 0.00 0.00 0.00 0.00 0.00 0.00 0.01 0.01 0.01 0.01 0.01 0.00 0.00 0.00 0.01 0.03 0.05 0.07 0.07 0.06
0.15 0.10 0.05 0.03 0.02 0.02 0.02 0.02 0.02 0.01 0.01 0.00 0.00 0.00 0.00 0.00 0.00 0.00 0.00 0.00 0.00 0.00 0.00 0.00 0.00 0.00 0.00 0.00 0.00 0.00 0.00 0.00 0.00 0.00 0.00 0.00 0.00 0.00 0.01 0.01 0.03 0.04 0.05 0.06
0.09 0.05 0.02 0.02 0.02 0.01 0.01 0.01 0.00 0.00 0.00 0.00 0.00 0.00 0.00 0.00 0.00 0.00 0.00 0.00 0.00 0.00 0.00 0.00 0.00 0.00 0.00 0.00 0.00 0.00 0.00 0.00 0.00 0.00 0.00 0.00 0.00 0.00 0.00 0.00 0.01 0.02 0.03 0.05
0.04 0.02 0.01 0.01 0.01 0.01 0.00 0.00 0.00 0.00 0.00 0.00 0.00 0.00 0.00 0.00 0.00 0.00 0.00 0.00 0.00 0.00 0.00 0.00 0.00 0.00 0.00 0.00 0.00 0.00 0.00 0.00 0.00 0.00 0.00 0.00 0.00 0.00 0.00 0.00 0.01 0.01 0.02 0.03
0.02 0.01 0.01 0.01 0.01 0.00 0.00 0.00 0.00 0.00 0.00 0.00 0.00 0.00 0.00 0.00 0.00 0.00 0.00 0.00 0.00 0.00 0.00 0.00 0.00 0.00 0.00 0.00 0.00 0.00 0.00 0.00 0.00 0.00 0.00 0.00 0.00 0.00 0.00 0.00 0.00 0.00 0.00 0.01
0.02 0.01 0.00 0.00 0.00 0.00 0.00 0.00 0.00 0.00 0.00 0.00 0.00 0.00 0.00 0.00 0.00 0.00 0.00 0.00 0.00 0.00 0.00 0.00 0.00 0.00 0.00 0.00 0.00 0.00 0.00 0.00 0.00 0.00 0.00 0.00 0.00 0.00 0.00 0.00 0.00 0.00 0.00 0.00
0.03 0.01 0.01 0.00 0.00 0.00 0.00 0.00 0.00 0.00 0.00 0.00 0.00 0.00 0.00 0.00 0.00 0.00 0.00 0.00 0.00 0.00 0.00 0.00 0.00 0.00 0.00 0.00 0.00 0.00 0.00 0.00 0.00 0.00 0.00 0.00 0.00 0.00 0.00 0.00 0.00 0.00 0.00 0.00
0.04 0.02 0.01 0.01 0.01 0.00 0.00 0.00 0.00 0.00 0.00 0.00 0.00 0.00 0.00 0.00 0.00 0.00 0.00 0.00 0.00 0.00 0.00 0.00 0.00 0.00 0.00 0.00 0.00 0.00 0.00 0.00 0.00 0.00 0.00 0.00 0.00 0.00 0.00 0.00 0.00 0.00 0.00 0.00
0.09 0.06 0.03 0.02 0.01 0.00 0.00 0.00 0.00 0.00 0.00 0.00 0.00 0.00 0.00 0.00 0.00 0.00 0.00 0.00 0.00 0.00 0.00 0.00 0.00 0.00 0.00 0.00 0.00 0.00 0.00 0.00 0.00 0.00 0.00 0.00 0.00 0.00 0.00 0.00 0.00 0.00 0.00 0.00
0.16 0.13 0.10 0.06 0.03 0.00 0.00 0.00 0.00 0.00 0.00 0.00 0.00 0.00 0.00 0.00 0.00 0.00 0.00 0.00 0.00 0.00 0.00 0.00 0.00 0.00 0.00 0.00 0.00 0.00 0.00 0.00 0.00 0.00 0.00 0.00 0.00 0.00 0.00 0.00 0.00 0.00 0.00 0.00